Погода в Бармере

Индия     25°44′25″N   71°23′35″E
темп.,
°C
ветер,
м/с
пор.,
м/с
влажн.,
%
обл.,
%
осадки,
мм/ч
давл.,
гПа
погр.,
м
22 января, пт
пт2223:30+19зюз56210 0.0 101345
02:30+18з45230 0.0 101327
05:30+13ююз124310 0.0 101223
08:30+16ю334912 0.0 101431
11:30+25ю57306 0.0 1014691
14:30+30ююз89190 0.0 10101297
17:30+28ююз79230 0.0 1009650
20:30+21ююз69410 0.0 1011134
23 января, сб
сб2323:30+19ююз58600 0.0 1011117
02:30+17зюз45830 0.0 101060
05:30+15з34890 0.0 101041
08:30+16з12760 0.0 101237
11:30+25ссз4470 0.0 1012725
14:30+28зсз5580 0.0 10101412
17:30+26зсз6890 0.0 1009447
20:30+18ссз56150 0.0 101258
24 января, вс
вс2423:30+15ссз4570 0.0 101332
02:30+13ссз5680 0.0 101343
05:30+11с45100 0.0 101333
08:30+12ссв44100 0.0 101651
11:30+22всв4570 0.0 1016566
14:30+25св3350 0.0 10141529
17:30+23св3360 0.0 101441
20:30+16ссв45110 0.0 101632
25 января, пн
пн2523:30+14св45130 0.0 101741
02:30+12св45170 0.0 101641
05:30+10св45220 0.0 101643
08:30+11св46210 0.0 101891
11:30+20всв67100 0.0 1019711
14:30+24св4570 0.0 10161324
17:30+23ссв3470 0.0 101566
20:30+16ссв5690 0.0 101631
26 января, вт
вт2623:30+14ссв56140 0.0 101747
02:30+12ссв45222 0.0 101628
05:30+10св34341 0.0 101523
08:30+12св33330 0.0 101738
11:30+21всв45190 0.0 1017816
14:30+24всв44123 0.0 10141401
17:30+23всв23111 0.0 101352
20:30+12в112813 0.0 101523